CZ-4C DEB, 43270

Orbit data source: Space-Track

CZ-4C DEB, 43270 is space debris in SSO originally from a launch on Sat, 31 Mar 2018 UTC launched from the Taiyaun Space Center, China (TSC). Debris objects in space refer to the collection of defunct objects orbiting the Earth. Examples of debris include non-operational satellites, rocket bodies, and fragments generated from explosions, collisions, or faulty payload assembly.

Loading next visibility...
Identifier
43270, 2018-031J
Orbit
SSO
Country
Flag of CNCN / PRC
Related business
Manufacturer
Unknown
Mission
Spacecraft
Bus & Motor
Unknown
Mass
Unknown
Launch date (UTC)
2018-03-31 (8 years ago)
Launch vehicle
Unknown
Launch site
Taiyaun Space Center, China (TSC)
Object type
Payload
Rocket body
Debris
Shape & HBR
Unknown shape, 0.1 m
Radar Cross Section
Small (<0.1 m²)

Expand to show TLE details & history
Last TLE update: 4 days ago

TLE from 4 days ago
0 CZ-4C DEB
1 43270U 18031J   25344.96551045  .00001322  00000-0  18014-3 0  9997
2 43270  97.7481  41.6763 0005181 166.2998 193.8356 14.80281184425099
Epoch: 2025-12-10T23:10Z
TLE epoch observation values (Epoch: 2025-12-10T23:10:20.102Z)
Latitude
-0.00005°
Longitude
-25.83572°
Altitude
634.989 km
Speed
7.539 km/s
True Right ascension
02h 46m 42s
True Declination
0° 00' 00"
Sunlit
Object was in full shadow at epoch
Visualization orbit readout
Latitude
Unknown
Longitude
Unknown
Altitude
Unknown
Speed
Unknown
Apparent Right ascension
Unknown
Apparent Declination
Unknown
Sunlit
N/A
Visualization observer readout
Local Sidereal Time
17:22:59
Azimuth
Unknown
Elevation
Unknown
Doppler factor
Unknown
Orbital elements
Apogee altitude
629.099 km
Perigee altitude
621.842 km
Semi-major axis
7,003.607 km
Eccentricity
0.00052
Inclination
97.7481°
RAAN
41.6763°
Arg. of periapsis
166.2998°
True anomaly
193.82141°
Mean anomaly
193.8356°
Eccentric anomaly
193.8285°
Mean motion
3.70306 °/min
Orbital period
97.22 mins
BSTAR
0.00018014
Loading maneuver chart data...
Computing Atmospheric mass density...
Loading historical data...
Loading historical data...
Loading historical data...
Loading historical data...
Loading historical data...
Loading historical data...
Loading historical data...

Documentation

Showing up to 5 results
|